sat.trackr.live / text

‹ back to catalog

STARLINK-4533

NORAD 53406 · 2022-097U

PAYLOAD ACTIVE UNKNOWN

§ Identity

Operator
Country
US
Launch date
2022-08-10
Launch site
AFETR
Launch vehicle
Mass (kg)
RCS (m²)

Purposes: comms

External: N2YO · Heavens-Above · Gunter

§ Orbital elements

Epoch: 2026-09-20T04:02:13.496064Z

Period
94.01 min
Inclination
53.1608°
Eccentricity
0.0001130
Mean motion
15.31701727 rev/d
Perigee alt
470.0 km
Apogee alt
471.5 km
Semi-major
6,848.9 km
B*
1.8299e-5
RAAN
308.3493°
Arg perigee
64.7941°
Mean anomaly
295.3177°
Rev number
22,818

§ Raw data

STARLINK-45331 53406U 22097U   26263.16821176  .00000203  00000+0  18299-4 0  99962 53406  53.1608 308.3493 0001130  64.7941 295.3177 15.31701727228188

JSON: /api/v1/satellites/53406 · /tle

For live sub-satellite position, see the globe view (requires WebGL).

§ Visibility from observer

Set your observer location to see the next 7 days of passes ≥ 10°. The values pass through the URL so the page stays shareable.

No JS? Fill the form by hand. The geolocation button needs JavaScript.